Regional Weather Roundup
Issued by NWS

Home | Current Version | Previous Version | Graphics & Text | Print | Product List | Glossary On
Versions: 1 2 3 4 5 6 7 8 9 10 11 12 13 14 15 16 17 18 19 20 21 22 23 24 25 26 27 28 29 30 31 32 33 34 35 36 37 38 39 40 41 42 43 44 45 46 47 48 49 50
000
ASUS45 KCYS 271110
RWRWY

WYOMING REGIONAL WEATHER ROUNDUP
NATIONAL WEATHER SERVICE CHEYENNE WY
500 AM MDT SAT MAY 27 2017

NOTE:  "FAIR" INDICATES FEW OR NO CLOUDS BELOW 12,000 FEET
WITH NO SIGNIFICANT WEATHER AND/OR OBSTRUCTIONS TO VISIBILITY.

WYZ001-271200-
YELLOWSTONE NATIONAL PARK

CITY           SKY/WX    TMP DP  RH WIND       PRES   REMARKS
LK YELLOWSTONE   N/A     29  29 100 CALM      30.21R
W YELLOWSTONE  NOT AVBL

$$
WYZ002>013-054>058-071-098>099-271200-
NORTHERN WYOMING

CITY           SKY/WX    TMP DP  RH WIND       PRES   REMARKS
JACKSON        FAIR      30  30 100 CALM      30.18R
CODY           FAIR      42  33  70 W5        30.11R
GREYBULL       FAIR      38  36  92 SE5       30.09R WCI  34
WORLAND        FAIR      36  36 100 S8        30.09R WCI  30
SHERIDAN       FAIR      36  32  85 S7        30.05S WCI  30
BUFFALO        FAIR      37  31  78 W8        30.07R WCI  31
GILLETTE       FAIR      44  42  93 W10       30.04R
HULETT         FAIR      45  41  87 S6        30.04R
NEWCASTLE      FAIR      45  43  93 N7        30.03S

$$
WYZ014>020-022>026-101>103-271200-
CENTRAL WYOMING

CITY           SKY/WX    TMP DP  RH WIND       PRES   REMARKS
BIG PINEY      FAIR      29  27  92 NE3       30.14R
PINEDALE       FAIR      27  27 100 NW5       30.16R WCI  21
DUBOIS         FAIR      32  30  93 W9        30.15R WCI  24
LANDER         FAIR      40  37  89 CALM      30.10R
RIVERTON       FAIR      39  37  92 NW10      30.11S WCI  32
CASPER         CLOUDY    41  41 100 S3        30.08R
DOUGLAS        FAIR      42  39  89 NW6       30.06R

$$
WYZ021-027>030-104>119-271200-
SOUTHERN WYOMING

CITY           SKY/WX    TMP DP  RH WIND       PRES   REMARKS
EVANSTON       FAIR      35  33  92 N7        30.16R WCI  29
KEMMERER         N/A     32  32 100 NW5       30.16R WCI  27
FORT BRIDGER   FAIR      36  34  93 W7        30.18R WCI  30
ROCK SPRINGS   CLOUDY    36  34  92 S5        30.13R WCI  32
DIXON            N/A     40  37  91 CALM      30.13R
RAWLINS        LGT RAIN  38  35  89 N16G24    30.10R FOG     WCI  29
SARATOGA       PTSUNNY   37  37 100 N8        30.11R WCI  31
LARAMIE        MOCLDY    37  35  92 NW6       30.06S WCI  32
CHEYENNE       CLOUDY    44  36  73 NW7       30.03S
TORRINGTON     CLOUDY    47  46  97 NW5       30.01R
PINE BLUFFS    CLOUDY    43  43 100 MISG      30.02R

$$



USA.gov is the U.S. government's official web portal to all federal, state and local government web resources and services.